Wind_Speed
37 36 35 35 36 36 38 40 39 39 39 39 37 36 37 38 39 41 39 33 30 30 15 20 19 19 18 20 22 24 24 23 21 22 14 17 14 16 20 17 23 19 17 13 13 8 2 34 28 29 25 19 23 22
37 37 36 35 36 37 37 40 39 39 39 39 39 39 38 39 40 40 38 32 28 27 24 10 20 14 12 15 23 25 23 17 12 16 21 15 22 13 22 6 15 13 18 11 10 10 13 31 15 25 28 24 22 22
37 38 38 37 37 38 38 39 39 38 39 41 41 41 41 41 40 38 35 30 24 26 9 16 13 8 13 15 21 28 24 16 15 11 17 19 20 16 14 12 16 15 16 14 18 19 30 11 10 29 24 19 20 20
38 39 39 39 39 39 38 38 40 39 40 42 44 45 45 44 40 34 28 25 18 22 17 15 3 8 17 20 25 30 29 16 21 16 17 15 15 13 11 12 15 21 22 25 19 26 19 16 32 26 19 17 15 16
39 39 40 40 41 42 39 38 40 39 41 43 46 48 48 45 38 27 20 16 13 15 20 9 8 13 17 22 26 28 21 21 23 21 16 14 15 10 13 12 10 21 25 28 27 29 30 31 29 29 22 17 15 12
41 40 41 41 41 41 39 39 40 39 42 45 47 50 47 40 30 19 18 11 12 14 17 9 10 15 19 23 22 18 14 10 7 3 7 10 11 7 6 3 9 14 18 24 30 30 31 33 33 30 28 23 20 17
42 41 40 40 42 42 40 39 40 40 43 47 49 47 42 34 19 12 14 11 12 14 13 10 11 23 21 28 21 14 8 6 6 9 10 10 8 7 3 1 7 10 13 16 22 28 25 26 30 28 25 23 20 18
43 42 41 40 42 44 40 38 39 40 44 47 48 44 37 24 12 10 9 7 14 10 9 6 17 26 25 31 24 16 10 8 7 5 6 6 2 2 3 6 9 9 10 13 16 21 26 30 31 28 26 24 20 18
42 42 42 41 42 45 42 36 39 41 45 47 45 41 29 18 10 9 6 8 14 8 7 7 24 24 30 31 23 17 11 9 6 5 5 3 3 2 5 7 10 13 16 17 18 19 20 23 26 27 23 21 20 18
42 44 43 42 42 46 43 32 38 41 46 47 41 36 24 16 11 8 7 10 8 9 9 11 26 32 30 30 24 17 8 7 5 5 6 1 3 4 7 10 12 13 15 17 19 18 20 21 25 26 24 18 14 13
44 46 45 44 43 45 40 29 37 42 45 46 41 31 24 14 10 6 6 9 7 7 7 17 28 30 30 27 25 9 8 6 4 3 3 2 1 3 6 9 10 12 14 16 19 21 23 24 23 24 23 22 15 10
45 45 46 42 42 45 31 28 36 42 44 42 36 30 16 8 4 4 5 7 8 6 14 26 29 28 29 26 18 9 6 5 5 4 3 3 2 3 4 6 8 10 12 14 15 18 19 20 20 21 21 20 19 16
46 46 45 41 40 43 24 28 35 40 42 38 30 12 7 4 4 3 4 16 17 23 27 27 27 29 27 21 11 8 5 7 6 4 3 2 2 5 6 7 8 9 11 13 14 16 18 18 18 18 19 18 18 16
45 44 41 38 39 35 22 29 36 39 37 31 16 9 5 4 4 12 23 25 26 27 29 30 29 26 27 16 8 6 7 6 3 2 1 3 5 6 7 8 8 8 9 10 12 14 15 16 17 18 17 17 16 15
41 41 37 34 37 25 22 28 34 37 33 21 10 6 6 13 22 24 25 25 27 28 28 28 26 20 17 8 6 6 4 3 1 2 7 8 8 8 9 9 9 9 10 10 11 12 14 15 16 16 16 16 15 14
39 36 33 34 32 18 25 30 34 35 30 13 7 10 20 22 25 22 23 23 25 25 25 24 15 8 5 4 4 4 5 3 7 10 10 11 10 11 11 11 11 11 11 11 10 11 11 13 14 14 14 14 12 11
34 31 31 32 21 20 27 33 34 30 12 7 13 20 21 24 22 22 23 23 23 23 21 15 6 5 8 5 4 5 7 11 10 11 11 11 12 12 12 12 12 12 12 11 11 11 11 11 12 12 12 12 11 9
27 28 31 26 17 24 32 33 31 15 14 17 18 19 23 25 21 23 24 23 22 20 18 13 11 11 6 7 10 12 10 11 12 13 13 13 13 14 14 14 14 13 13 13 12 12 12 12 12 11 10 9 8 8
25 28 29 16 20 29 33 31 24 15 17 17 18 22 23 22 23 24 24 22 20 18 16 11 5 8 10 10 11 12 13 14 12 12 14 15 15 15 14 15 15 15 15 14 14 14 13 13 12 12 10 9 8 7
26 28 22 17 25 29 29 21 25 16 13 17 22 21 23 25 23 26 23 20 19 17 11 7 9 10 11 13 14 14 14 15 15 13 14 15 16 17 17 17 16 16 16 16 15 15 14 14 12 11 11 10 9 8
25 21 17 23 28 31 30 20 16 12 15 18 24 24 25 23 25 24 21 18 18 12 11 10 11 13 15 14 14 14 15 16 18 19 19 17 17 17 17 17 17 17 16 16 15 15 15 14 14 13 13 12 12 11
19 18 21 27 32 32 21 11 11 15 22 23 22 24 24 24 27 22 19 15 12 12 10 10 11 11 12 12 13 14 15 17 18 20 21 22 22 21 20 19 18 18 17 16 16 16 16 15 15 15 15 14 13 12
19 20 26 30 22 10 9 10 16 22 21 22 25 25 21 27 22 16 11 14 12 9 9 9 9 10 11 12 14 15 18 20 22 24 25 24 23 23 22 21 20 18 17 17 17 16 16 16 15 15 15 15 14 12
20 25 23 9 7 9 14 17 22 23 25 23 24 25 26 19 14 15 16 11 9 8 8 9 11 13 16 18 19 20 21 22 24 25 28 27 25 23 23 23 22 20 18 17 16 16 16 15 14 14 14 14 13 13
23 12 8 9 8 12 17 21 24 21 21 25 25 19 12 13 20 16 9 7 7 8 10 13 15 17 19 20 23 25 27 28 28 27 28 27 26 23 22 22 22 21 20 18 17 16 15 16 15 15 15 15 15 15
7 4 6 9 13 20 21 21 19 23 24 21 12 13 19 20 10 4 5 8 9 11 14 18 21 22 25 28 32 32 32 32 32 30 29 29 28 26 23 21 19 20 20 19 17 16 15 16 15 15 15 15 15 15
5 6 11 18 21 22 23 22 22 22 17 13 15 23 15 7 4 4 8 11 13 18 22 26 30 33 36 37 36 35 34 33 31 30 27 26 25 24 22 21 18 18 19 18 18 18 16 16 16 16 15 15 14 13
8 13 17 20 21 22 20 20 18 12 14 18 22 16 9 7 9 5 9 17 23 28 31 35 37 39 38 36 34 31 28 26 24 23 24 25 26 23 21 20 20 19 18 17 17 17 17 17 17 16 16 14 14 13
13 15 17 19 21 20 18 20 18 19 19 19 18 15 12 10 9 12 17 23 33 37 38 38 34 31 29 28 28 28 27 27 24 21 19 18 16 18 21 21 20 19 19 17 17 17 16 16 18 20 16 14 13 13
13 15 18 18 19 17 19 19 20 20 20 18 15 16 15 12 14 19 26 35 35 34 33 32 31 29 27 26 24 22 24 25 26 25 22 20 18 17 18 17 15 17 18 19 17 17 18 18 17 18 18 16 16 16
14 16 16 18 18 19 19 19 18 20 18 17 22 19 15 20 29 31 32 32 31 30 29 27 27 29 29 27 25 23 20 20 21 22 23 22 21 20 20 18 15 16 16 16 16 16 16 17 18 17 18 17 17 17
14 16 17 17 17 17 17 16 18 19 16 20 23 25 24 28 34 32 31 31 30 28 29 30 31 30 29 28 28 28 28 27 26 25 23 21 20 20 20 16 14 14 13 12 13 14 14 15 15 16 15 16 16 15
13 14 15 17 18 18 17 14 15 15 16 21 24 27 30 33 35 34 33 34 33 32 31 31 31 31 30 30 29 28 28 26 24 23 23 22 21 20 20 17 15 14 12 11 11 11 12 12 13 13 14 14 14 14
Wind_Direction
343 342 340 338 339 340 342 344 344 342 343 344 342 340 341 340 340 343 345 343 336 337 340 324 326 330 333 342 356 353 358 358 7 8 360 359 349 349 353 349 0 8 1 5 356 20 29 349 20 38 4 5 355 2
337 340 339 336 336 337 338 342 342 341 341 343 341 337 336 336 335 338 342 339 333 332 340 344 333 338 352 357 353 349 343 339 334 354 339 328 330 327 344 342 354 359 12 331 351 319 346 335 10 3 351 350 349 345
333 336 338 337 336 335 335 339 340 339 339 340 339 338 336 335 334 335 336 333 330 335 340 333 343 18 353 336 342 340 334 329 326 332 338 319 327 325 329 321 344 352 354 348 349 342 347 349 14 331 332 337 333 334
327 330 334 337 335 333 333 335 338 338 339 337 335 336 335 333 331 330 330 332 331 338 347 349 342 346 346 331 326 321 314 297 290 310 314 310 304 303 291 305 328 346 342 347 348 338 346 326 319 321 322 325 324 327
328 325 330 334 335 332 330 333 336 337 338 337 333 333 333 331 327 326 329 331 336 343 348 14 22 357 343 335 318 317 318 290 285 300 308 278 280 274 282 295 327 343 345 344 332 334 328 324 320 317 312 307 307 306
322 324 325 329 329 329 327 330 335 335 337 336 334 332 332 327 322 321 334 339 331 330 338 335 341 352 345 342 331 328 335 355 3 318 273 262 258 257 254 290 340 344 339 334 332 333 332 323 319 315 309 301 294 297
319 319 319 324 325 326 325 327 332 333 336 337 336 334 334 328 319 320 329 321 328 329 335 332 336 344 346 353 349 339 320 327 309 273 266 270 279 253 210 350 335 335 334 334 329 327 327 327 318 312 303 298 292 285
317 316 316 321 320 321 321 323 329 332 336 337 337 336 336 331 319 319 324 321 335 324 335 315 338 342 350 350 348 338 323 315 315 314 311 310 300 211 41 360 353 355 351 343 346 347 346 338 327 320 312 298 288 278
316 316 317 317 316 318 318 323 328 332 335 338 337 336 339 334 324 320 310 332 333 327 317 312 342 342 342 345 344 337 313 314 300 307 331 316 355 49 7 5 358 357 360 1 359 358 354 351 343 337 328 314 299 287
314 316 317 313 315 315 320 324 327 331 334 336 336 338 339 336 324 317 305 325 310 313 312 324 335 337 338 341 339 328 299 297 302 286 314 280 50 18 1 358 357 356 359 357 358 2 9 9 5 360 356 344 322 305
313 315 316 311 313 314 316 328 327 331 333 337 337 334 327 318 311 311 308 332 312 305 298 319 328 330 333 334 331 309 296 289 280 274 306 215 97 3 360 357 356 358 2 5 4 5 6 10 10 9 10 7 358 340
313 315 311 310 311 314 316 330 327 331 331 332 330 326 314 298 293 290 298 319 310 295 304 317 323 328 330 328 320 297 278 268 261 274 267 229 271 329 352 349 350 355 2 5 10 9 8 12 14 16 16 20 22 22
310 312 309 306 311 311 318 327 326 328 330 329 330 311 309 291 280 271 288 310 307 304 309 316 320 319 318 317 295 269 257 248 266 246 235 215 291 319 330 337 341 349 355 359 2 7 8 10 15 19 22 23 34 41
309 307 305 306 309 309 324 323 324 328 328 329 318 294 280 283 287 304 310 310 311 313 315 316 314 308 306 295 268 259 255 265 254 247 215 275 298 306 312 321 330 332 335 342 351 357 4 8 12 16 22 27 29 36
305 305 304 307 308 309 321 320 323 328 325 321 301 280 265 303 312 313 313 314 317 318 319 319 319 310 289 265 258 268 268 278 287 292 304 305 307 307 307 310 314 319 321 328 336 347 354 360 4 10 14 19 24 27
304 305 306 309 304 316 316 318 323 324 320 298 262 282 301 310 318 318 321 320 319 321 322 325 319 282 285 271 277 277 309 334 336 320 313 308 310 315 314 314 314 314 315 320 326 332 342 349 351 355 6 9 10 19
305 306 309 304 304 313 312 319 324 323 296 272 291 305 309 314 318 320 323 322 323 325 325 326 295 273 307 299 309 335 322 318 319 317 313 312 312 313 312 311 311 312 312 313 316 320 326 334 341 347 349 348 352 360
306 306 305 299 313 313 314 321 325 297 278 292 300 308 311 317 318 324 325 324 326 326 327 319 292 287 300 309 316 315 313 315 315 315 313 312 313 312 312 312 311 309 308 307 307 308 312 320 327 329 330 331 333 337
302 304 305 307 318 317 321 320 319 296 291 301 309 312 315 317 318 323 324 323 326 326 321 321 311 317 320 318 316 316 316 316 315 311 310 311 310 310 309 311 310 308 307 305 304 305 306 307 309 312 314 314 316 318
308 308 304 317 317 319 319 306 307 294 289 309 316 316 318 319 316 323 319 319 325 323 315 307 314 322 324 323 322 323 325 322 321 318 312 309 307 305 304 302 300 299 299 299 300 300 301 303 304 304 304 306 308 307
307 301 312 314 314 316 312 299 289 287 301 312 316 319 320 319 319 320 315 317 322 308 304 311 321 323 321 324 326 327 328 329 329 326 323 318 313 309 306 303 300 295 291 290 290 291 292 292 294 297 297 296 295 292
302 310 316 317 314 312 305 292 287 303 309 312 315 321 320 317 321 318 311 311 305 305 306 320 325 324 331 336 338 339 336 333 331 328 325 322 318 314 311 307 302 298 296 291 287 284 284 285 287 289 292 292 289 286
316 322 316 316 311 299 286 302 314 321 317 315 321 322 315 314 315 314 306 303 304 301 311 317 318 318 324 331 335 335 336 334 330 325 321 320 315 312 310 307 305 301 295 290 288 285 284 284 282 283 282 282 282 279
314 319 316 301 290 290 304 317 323 321 318 321 321 315 315 314 315 313 304 296 302 305 313 317 322 327 330 330 330 328 326 324 323 320 315 316 314 312 307 302 299 299 299 294 289 285 281 279 277 277 275 274 274 273
320 319 299 293 298 312 321 321 320 322 322 321 320 318 308 316 319 302 300 307 307 317 322 327 328 327 328 327 326 324 323 321 317 314 311 310 310 310 307 304 299 293 290 290 289 286 284 279 275 272 269 267 266 266
309 292 303 311 319 327 328 326 324 324 327 331 318 320 323 319 295 298 312 322 321 322 326 328 326 329 329 326 324 322 319 315 313 310 308 305 303 302 300 300 297 290 287 284 284 283 281 279 279 278 274 269 267 266
299 298 317 321 326 328 331 332 333 337 333 324 323 328 322 297 328 332 325 327 336 338 333 332 331 329 327 325 322 319 317 316 316 315 314 309 304 301 298 295 294 293 289 286 280 275 274 276 278 277 277 277 274 270
318 318 324 329 333 337 342 343 346 336 328 328 335 339 319 311 315 315 334 333 337 339 334 330 329 325 322 321 321 322 324 325 326 325 323 321 317 314 309 302 296 291 288 288 284 278 274 270 271 272 272 277 279 278
329 331 335 339 342 350 351 351 347 344 344 346 348 350 345 335 323 314 328 335 335 332 328 324 324 325 329 331 330 329 328 326 326 324 320 314 306 303 302 301 302 300 295 289 285 282 277 271 266 264 264 267 268 268
341 345 346 349 358 1 355 352 352 355 357 360 4 360 2 5 350 342 335 332 331 329 332 336 337 337 335 334 336 334 329 328 328 329 327 321 315 308 301 298 297 292 288 286 281 277 276 273 267 265 264 256 253 255
352 352 2 8 8 2 356 356 2 3 8 11 8 2 1 354 352 343 340 342 343 342 342 340 339 338 339 339 340 342 343 341 338 336 334 331 329 324 313 312 306 293 292 290 286 280 272 270 270 268 264 261 256 252
2 15 13 14 12 9 8 9 5 8 8 7 4 1 354 348 352 352 350 350 350 346 347 346 345 346 345 345 346 344 343 344 341 341 339 334 333 328 325 329 314 307 303 298 293 286 278 269 265 264 263 262 258 257
21 20 23 27 26 23 20 24 19 12 8 6 5 2 1 359 358 357 355 352 351 352 353 352 350 348 348 348 346 342 341 342 339 339 339 337 333 330 329 326 320 315 314 309 301 296 290 280 269 264 260 259 257 254
Height
3112 3105 3099 3092 3086 3079 3072 3065 3057 3049 3041 3034 3026 3020 3013 3006 2998 2990 2984 2976 2972 2966 2961 2956 2953 2948 2946 2944 2940 2936 2930 2925 2920 2917 2914 2912 2908 2905 2903 2898 2894 2891 2886 2885 2885 2886 2890 2885 2877 2873 2883 2879 2874 2871
3108 3102 3095 3088 3082 3077 3070 3063 3054 3046 3039 3032 3024 3017 3010 3003 2995 2987 2979 2972 2967 2963 2958 2953 2950 2948 2946 2943 2939 2937 2934 2929 2926 2922 2920 2916 2913 2908 2905 2903 2900 2898 2897 2896 2897 2891 2889 2887 2883 2881 2880 2878 2875 2873
3104 3098 3091 3085 3079 3073 3066 3059 3051 3043 3035 3027 3020 3014 3006 2999 2992 2986 2980 2973 2965 2959 2957 2953 2949 2948 2946 2942 2939 2936 2932 2929 2927 2925 2922 2918 2915 2911 2907 2903 2901 2901 2900 2896 2891 2888 2887 2884 2883 2884 2881 2878 2874 2871
3099 3093 3086 3080 3074 3068 3062 3055 3048 3041 3033 3025 3017 3009 2999 2991 2985 2979 2974 2969 2965 2959 2954 2951 2948 2947 2945 2942 2937 2932 2928 2927 2923 2922 2920 2916 2914 2911 2908 2906 2902 2900 2897 2894 2892 2889 2887 2883 2880 2878 2876 2873 2872 2869
3094 3088 3081 3074 3068 3062 3056 3050 3044 3037 3030 3021 3012 3004 2996 2986 2978 2973 2969 2964 2962 2961 2955 2951 2949 2947 2945 2940 2934 2927 2922 2920 2919 2918 2916 2915 2912 2911 2907 2905 2902 2898 2894 2892 2890 2888 2884 2879 2874 2870 2868 2867 2866 2864
3088 3082 3076 3069 3062 3056 3051 3045 3038 3031 3023 3016 3007 2996 2988 2980 2972 2969 2966 2964 2961 2957 2953 2952 2950 2947 2943 2939 2930 2924 2920 2917 2916 2916 2914 2911 2909 2909 2907 2905 2905 2901 2898 2893 2886 2882 2878 2872 2869 2865 2862 2861 2860 2859
3081 3075 3068 3062 3056 3049 3043 3039 3032 3025 3018 3009 3001 2991 2981 2973 2969 2966 2964 2961 2958 2955 2952 2949 2948 2944 2939 2934 2928 2924 2920 2918 2917 2915 2912 2910 2908 2907 2904 2906 2906 2903 2899 2896 2890 2882 2878 2872 2863 2861 2858 2856 2855 2854
3074 3068 3061 3056 3049 3043 3036 3030 3025 3018 3011 3004 2993 2983 2975 2968 2965 2963 2961 2959 2956 2953 2951 2948 2947 2941 2936 2931 2926 2922 2919 2916 2914 2912 2911 2908 2907 2905 2904 2904 2902 2901 2899 2895 2891 2884 2876 2868 2861 2856 2852 2850 2849 2849
3067 3061 3055 3049 3042 3036 3030 3025 3019 3013 3005 2996 2987 2978 2973 2967 2964 2962 2959 2957 2954 2955 2950 2947 2944 2939 2935 2930 2924 2921 2917 2914 2912 2911 2910 2909 2906 2905 2904 2903 2900 2897 2894 2891 2888 2883 2878 2869 2859 2852 2849 2845 2843 2843
3059 3053 3047 3041 3035 3030 3023 3018 3013 3007 3000 2992 2983 2974 2969 2965 2962 2961 2957 2955 2951 2950 2947 2945 2943 2938 2935 2928 2923 2920 2915 2912 2909 2909 2907 2906 2905 2904 2902 2901 2899 2896 2892 2889 2885 2881 2875 2868 2860 2853 2847 2842 2840 2840
3050 3045 3039 3033 3028 3022 3016 3011 3007 3001 2995 2987 2976 2971 2966 2963 2961 2958 2958 2958 2952 2948 2946 2943 2940 2935 2930 2926 2922 2919 2914 2911 2908 2907 2906 2905 2905 2904 2901 2900 2898 2895 2892 2888 2884 2879 2873 2869 2865 2858 2852 2845 2842 2839
3042 3036 3031 3026 3021 3017 3011 3007 3002 2997 2990 2982 2976 2967 2962 2961 2959 2958 2957 2958 2953 2948 2944 2940 2936 2932 2927 2923 2919 2916 2913 2910 2906 2905 2904 2902 2903 2902 2900 2899 2897 2894 2892 2889 2885 2881 2877 2872 2867 2862 2857 2851 2846 2841
3033 3028 3023 3018 3014 3010 3004 3002 2997 2990 2985 2976 2969 2964 2961 2960 2959 2954 2955 2956 2953 2947 2941 2936 2933 2928 2923 2920 2916 2913 2910 2907 2905 2903 2901 2901 2901 2900 2899 2897 2895 2893 2891 2888 2885 2881 2878 2874 2869 2865 2861 2856 2852 2848
3024 3019 3014 3010 3007 3002 2998 2995 2991 2985 2979 2973 2967 2963 2960 2957 2956 2954 2951 2950 2947 2941 2936 2931 2927 2924 2918 2915 2912 2909 2907 2905 2901 2901 2900 2899 2898 2897 2896 2895 2893 2891 2889 2887 2884 2881 2878 2875 2870 2867 2863 2859 2856 2852
3014 3010 3006 3002 2998 2995 2993 2989 2984 2977 2975 2969 2966 2961 2958 2956 2952 2949 2945 2943 2940 2935 2930 2925 2920 2917 2912 2911 2909 2906 2905 2902 2900 2900 2899 2897 2896 2894 2894 2892 2890 2889 2887 2885 2883 2880 2877 2873 2870 2867 2864 2861 2858 2856
3006 3003 3000 2997 2992 2989 2988 2984 2979 2972 2968 2962 2959 2958 2956 2952 2948 2945 2941 2938 2935 2930 2926 2921 2916 2912 2909 2908 2907 2904 2904 2902 2901 2900 2898 2896 2895 2893 2892 2890 2888 2886 2885 2883 2881 2878 2876 2873 2870 2868 2865 2862 2860 2858
2998 2995 2993 2989 2985 2984 2982 2977 2972 2967 2963 2959 2955 2954 2952 2948 2944 2941 2937 2934 2930 2927 2924 2920 2916 2911 2909 2906 2905 2904 2903 2902 2900 2898 2896 2894 2892 2890 2889 2887 2885 2883 2881 2880 2878 2876 2874 2872 2870 2867 2865 2863 2861 2859
2993 2991 2987 2983 2980 2979 2975 2971 2967 2962 2958 2953 2952 2950 2947 2943 2940 2936 2933 2929 2926 2923 2920 2918 2914 2910 2908 2906 2904 2903 2901 2899 2897 2895 2893 2891 2889 2887 2885 2883 2881 2880 2878 2876 2875 2873 2872 2870 2868 2866 2864 2862 2861 2860
2985 2982 2981 2978 2977 2976 2971 2965 2962 2958 2955 2950 2948 2946 2942 2939 2935 2932 2929 2925 2922 2919 2917 2914 2911 2909 2906 2904 2902 2900 2899 2896 2895 2893 2890 2888 2886 2884 2882 2879 2877 2876 2874 2873 2871 2870 2868 2867 2865 2864 2862 2861 2860 2859
2982 2979 2975 2973 2973 2969 2966 2963 2958 2953 2949 2947 2944 2941 2938 2935 2931 2928 2924 2922 2919 2916 2914 2912 2909 2906 2904 2902 2899 2898 2896 2893 2891 2889 2887 2885 2882 2880 2877 2875 2873 2872 2870 2869 2867 2866 2865 2863 2862 2861 2860 2859 2858 2857
2975 2972 2972 2970 2967 2966 2962 2957 2953 2950 2946 2944 2941 2937 2934 2930 2927 2923 2920 2917 2915 2913 2911 2909 2907 2904 2901 2899 2897 2895 2892 2889 2886 2884 2882 2880 2878 2875 2873 2871 2869 2867 2866 2864 2863 2862 2860 2859 2858 2857 2856 2855 2855 2854
2972 2967 2966 2964 2962 2957 2954 2952 2950 2947 2944 2941 2937 2933 2929 2926 2923 2920 2917 2915 2912 2910 2909 2906 2904 2901 2899 2897 2895 2892 2890 2887 2884 2881 2877 2875 2872 2870 2867 2865 2863 2862 2860 2859 2857 2856 2855 2854 2853 2853 2851 2851 2850 2850
2970 2967 2961 2958 2956 2953 2953 2949 2948 2944 2940 2936 2932 2929 2925 2923 2919 2917 2915 2912 2910 2907 2905 2904 2902 2899 2897 2895 2892 2889 2887 2883 2880 2877 2874 2871 2867 2864 2862 2859 2857 2855 2854 2853 2852 2851 2850 2849 2848 2847 2846 2846 2845 2845
2965 2961 2957 2955 2954 2953 2949 2947 2944 2941 2936 2933 2929 2924 2921 2918 2916 2914 2911 2909 2907 2906 2904 2902 2900 2897 2894 2891 2888 2886 2883 2879 2875 2871 2866 2864 2862 2859 2855 2853 2851 2849 2848 2847 2845 2844 2844 2843 2843 2842 2842 2841 2841 2841
2964 2959 2957 2954 2954 2951 2947 2944 2941 2937 2933 2929 2925 2921 2919 2917 2914 2911 2908 2907 2906 2904 2902 2900 2897 2894 2892 2888 2884 2880 2876 2872 2868 2865 2860 2857 2854 2852 2849 2846 2844 2842 2841 2840 2839 2838 2837 2837 2837 2836 2836 2837 2836 2837
2960 2957 2958 2955 2952 2950 2946 2942 2937 2934 2929 2926 2923 2920 2918 2915 2911 2909 2908 2907 2905 2903 2900 2897 2894 2891 2887 2881 2877 2873 2868 2864 2859 2856 2852 2848 2845 2843 2841 2840 2838 2835 2834 2833 2833 2832 2831 2830 2830 2830 2830 2830 2830 2831
2959 2958 2956 2954 2951 2948 2943 2939 2935 2932 2928 2925 2922 2919 2916 2912 2910 2910 2908 2906 2903 2900 2896 2892 2888 2883 2878 2873 2869 2863 2858 2854 2849 2845 2842 2839 2836 2834 2833 2831 2830 2829 2827 2826 2825 2825 2825 2825 2824 2824 2824 2824 2824 2825
2959 2957 2955 2952 2948 2944 2940 2936 2933 2931 2928 2925 2921 2918 2916 2914 2912 2910 2907 2904 2901 2897 2892 2886 2881 2875 2869 2864 2859 2855 2851 2847 2843 2839 2834 2830 2826 2826 2825 2823 2822 2821 2820 2820 2819 2818 2818 2818 2818 2818 2818 2819 2819 2819
2958 2955 2953 2949 2945 2941 2938 2936 2934 2931 2928 2924 2921 2917 2916 2913 2912 2909 2907 2902 2898 2891 2885 2880 2876 2869 2863 2857 2851 2847 2844 2839 2837 2834 2831 2828 2826 2822 2818 2816 2815 2814 2813 2812 2811 2811 2811 2811 2811 2811 2813 2813 2814 2814
2957 2953 2950 2947 2943 2940 2939 2936 2933 2930 2926 2924 2921 2919 2917 2914 2913 2909 2905 2899 2892 2885 2878 2872 2866 2862 2858 2854 2850 2846 2840 2835 2830 2827 2824 2821 2818 2816 2813 2811 2810 2808 2806 2805 2805 2804 2804 2803 2804 2804 2805 2807 2808 2809
2955 2952 2949 2945 2943 2941 2938 2936 2932 2930 2927 2925 2922 2920 2918 2915 2911 2906 2900 2893 2886 2880 2875 2870 2864 2858 2853 2849 2844 2841 2837 2833 2828 2823 2818 2815 2812 2809 2806 2804 2803 2801 2800 2798 2798 2797 2797 2797 2797 2798 2799 2800 2801 2802
2953 2950 2949 2946 2945 2942 2939 2936 2934 2931 2929 2927 2925 2921 2918 2914 2909 2902 2896 2890 2884 2878 2872 2865 2860 2855 2849 2845 2840 2835 2830 2826 2822 2818 2815 2811 2808 2804 2801 2799 2796 2795 2794 2793 2792 2791 2791 2791 2792 2792 2793 2794 2795 2797
2952 2951 2950 2947 2944 2942 2939 2937 2935 2933 2931 2928 2925 2921 2917 2912 2905 2899 2894 2887 2881 2875 2869 2863 2857 2851 2846 2841 2837 2832 2827 2823 2819 2815 2811 2807 2804 2800 2797 2794 2792 2790 2789 2788 2787 2786 2786 2786 2786 2787 2788 2789 2790 2791